Time,TemperatureF,DewpointF,PressureIn,WindDirection,WindDirectionDegrees,WindSpeedMPH,WindSpeedGustMPH,Humidity,HourlyPrecipIn,Conditions,Clouds,dailyrainin,SoftwareType,DateUTC
2013-01-23 00:03:00,-8.0,-99.9,-100.00,SW,225,0.0,3.0,-999,0.00,,,0.00,,2013-01-23 06:03:00,
2013-01-23 00:13:00,-8.0,-99.9,-100.00,SW,225,0.0,3.0,-999,0.00,,,0.00,,2013-01-23 06:13:00,
2013-01-23 00:23:00,-9.0,-99.9,-100.00,WSW,248,0.0,3.0,-999,0.00,,,0.00,,2013-01-23 06:23:00,
2013-01-23 00:33:00,-9.0,-99.9,-100.00,WSW,248,0.0,3.0,-999,0.00,,,0.00,,2013-01-23 06:33:00,
2013-01-23 00:43:00,-9.0,-99.9,-100.00,WSW,248,0.0,3.0,-999,0.00,,,0.00,,2013-01-23 06:43:00,
2013-01-23 00:53:00,-9.0,-99.9,-100.00,WSW,248,0.0,2.0,-999,0.00,,,0.00,,2013-01-23 06:53:00,
2013-01-23 01:02:00,-10.0,-99.9,-100.00,WSW,248,0.0,1.0,-999,0.00,,,0.00,,2013-01-23 07:02:00,
2013-01-23 01:13:00,-10.0,-99.9,-100.00,WSW,248,0.0,1.0,-999,0.00,,,0.00,,2013-01-23 07:13:00,
2013-01-23 01:23:00,-12.0,-99.9,-100.00,WSW,248,0.0,1.0,-999,0.00,,,0.00,,2013-01-23 07:23:00,
2013-01-23 01:33:00,-13.0,-99.9,-100.00,WSW,248,0.0,1.0,-999,0.00,,,0.00,,2013-01-23 07:33:00,
2013-01-23 01:43:00,-13.0,-99.9,-100.00,WSW,248,0.0,1.0,-999,0.00,,,0.00,,2013-01-23 07:43:00,
2013-01-23 01:53:00,-13.0,-99.9,-100.00,WSW,248,0.0,1.0,-999,0.00,,,0.00,,2013-01-23 07:53:00,
2013-01-23 02:02:00,-14.0,-99.9,-100.00,WSW,248,0.0,1.0,-999,0.00,,,0.00,,2013-01-23 08:02:00,
2013-01-23 02:13:00,-14.0,-99.9,-100.00,WSW,248,0.0,1.0,-999,0.00,,,0.00,,2013-01-23 08:13:00,
2013-01-23 02:23:00,-15.0,-99.9,-100.00,SW,225,0.0,1.0,-999,0.00,,,0.00,,2013-01-23 08:23:00,
2013-01-23 02:33:00,-15.0,-99.9,-100.00,WSW,248,0.0,1.0,-999,0.00,,,0.00,,2013-01-23 08:33:00,
2013-01-23 02:43:00,-15.0,-99.9,-100.00,WSW,248,0.0,1.0,-999,0.00,,,0.00,,2013-01-23 08:43:00,
2013-01-23 02:53:00,-16.0,-99.9,-100.00,WSW,248,0.0,2.0,-999,0.00,,,0.00,,2013-01-23 08:53:00,
2013-01-23 03:03:00,-16.0,-99.9,-100.00,WSW,248,0.0,1.0,-999,0.00,,,0.00,,2013-01-23 09:03:00,
2013-01-23 03:13:00,-16.0,-99.9,-100.00,WSW,248,0.0,1.0,-999,0.00,,,0.00,,2013-01-23 09:13:00,
2013-01-23 03:23:00,-17.0,-99.9,-100.00,WSW,248,0.0,0.0,-999,0.00,,,0.00,,2013-01-23 09:23:00,
2013-01-23 03:33:00,-17.0,-99.9,-100.00,WSW,248,0.0,0.0,-999,0.00,,,0.00,,2013-01-23 09:33:00,
2013-01-23 03:44:00,-17.0,-99.9,-100.00,WSW,248,0.0,0.0,-999,0.00,,,0.00,,2013-01-23 09:44:00,
2013-01-23 03:53:00,-17.0,-99.9,-100.00,WSW,248,0.0,0.0,-999,0.00,,,0.00,,2013-01-23 09:53:00,
2013-01-23 04:03:00,-18.0,-99.9,-100.00,WSW,248,0.0,0.0,-999,0.00,,,0.00,,2013-01-23 10:03:00,
2013-01-23 04:13:00,-18.0,-99.9,-100.00,WSW,248,0.0,0.0,-999,0.00,,,0.00,,2013-01-23 10:13:00,
2013-01-23 04:23:00,-18.0,-99.9,-100.00,WSW,248,0.0,0.0,-999,0.00,,,0.00,,2013-01-23 10:23:00,
2013-01-23 04:33:00,-19.0,-99.9,-100.00,WSW,248,0.0,0.0,-999,0.00,,,0.00,,2013-01-23 10:33:00,
2013-01-23 04:43:00,-19.0,-99.9,-100.00,WSW,248,0.0,0.0,-999,0.00,,,0.00,,2013-01-23 10:43:00,
2013-01-23 04:53:00,-19.0,-99.9,-100.00,WSW,248,0.0,0.0,-999,0.00,,,0.00,,2013-01-23 10:53:00,
2013-01-23 05:03:00,-20.0,-99.9,-100.00,WSW,248,0.0,0.0,-999,0.00,,,0.00,,2013-01-23 11:03:00,
2013-01-23 05:12:00,-20.0,-99.9,-100.00,WSW,248,0.0,0.0,-999,0.00,,,0.00,,2013-01-23 11:12:00,
2013-01-23 05:23:00,-20.0,-99.9,-100.00,WSW,248,0.0,0.0,-999,0.00,,,0.00,,2013-01-23 11:23:00,
2013-01-23 05:34:00,-20.0,-99.9,-100.00,WSW,248,0.0,0.0,-999,0.00,,,0.00,,2013-01-23 11:34:00,
2013-01-23 05:43:00,-20.0,-99.9,-100.00,WSW,248,0.0,0.0,-999,0.00,,,0.00,,2013-01-23 11:43:00,
2013-01-23 05:53:00,-19.0,-99.9,-100.00,WSW,248,0.0,0.0,-999,0.00,,,0.00,,2013-01-23 11:53:00,
2013-01-23 06:04:00,-18.0,-99.9,-100.00,WSW,248,1.0,1.0,-999,0.00,,,0.00,,2013-01-23 12:04:00,
2013-01-23 06:13:00,-18.0,-99.9,-100.00,WSW,248,1.0,1.0,-999,0.00,,,0.00,,2013-01-23 12:13:00,
2013-01-23 06:23:00,-16.0,-99.9,-100.00,WSW,248,2.0,3.0,-999,0.00,,,0.00,,2013-01-23 12:23:00,
2013-01-23 06:33:00,-14.0,-99.9,-100.00,WSW,248,0.0,1.0,-999,0.00,,,0.00,,2013-01-23 12:33:00,
2013-01-23 06:43:00,-14.0,-99.9,-100.00,WSW,248,0.0,1.0,-999,0.00,,,0.00,,2013-01-23 12:43:00,
2013-01-23 06:53:00,-13.0,-99.9,-100.00,WSW,248,0.0,2.0,-999,0.00,,,0.00,,2013-01-23 12:53:00,
2013-01-23 07:04:00,-12.0,-99.9,-100.00,WSW,248,0.0,0.0,-999,0.00,,,0.00,,2013-01-23 13:04:00,
2013-01-23 07:13:00,-12.0,-99.9,-100.00,WSW,248,0.0,0.0,-999,0.00,,,0.00,,2013-01-23 13:13:00,
2013-01-23 07:23:00,-11.0,-99.9,-100.00,WSW,248,0.0,1.0,-999,0.00,,,0.00,,2013-01-23 13:23:00,
2013-01-23 07:34:00,-11.0,-99.9,-100.00,WSW,248,0.0,1.0,-999,0.00,,,0.00,,2013-01-23 13:34:00,
2013-01-23 07:43:00,-11.0,-99.9,-100.00,WSW,248,0.0,1.0,-999,0.00,,,0.00,,2013-01-23 13:43:00,
2013-01-23 07:53:00,-11.0,-99.9,-100.00,WSW,248,0.0,2.0,-999,0.00,,,0.00,,2013-01-23 13:53:00,
2013-01-23 08:03:00,-10.0,-99.9,-100.00,WSW,248,0.0,1.0,-999,0.00,,,0.00,,2013-01-23 14:03:00,
2013-01-23 08:12:00,-10.0,-99.9,-100.00,WSW,248,0.0,1.0,-999,0.00,,,0.00,,2013-01-23 14:12:00,
2013-01-23 08:24:00,-10.0,-99.9,-100.00,WSW,248,0.0,2.0,-999,0.00,,,0.00,,2013-01-23 14:24:00,
2013-01-23 08:33:00,-9.0,-99.9,-100.00,SW,225,0.0,3.0,-999,0.00,,,0.00,,2013-01-23 14:33:00,
2013-01-23 08:43:00,-9.0,-99.9,-100.00,SW,225,0.0,3.0,-999,0.00,,,0.00,,2013-01-23 14:43:00,
2013-01-23 08:53:00,-8.0,-99.9,-100.00,WSW,248,0.0,2.0,-999,0.00,,,0.00,,2013-01-23 14:53:00,
2013-01-23 09:03:00,-7.0,-99.9,-100.00,WSW,248,0.0,2.0,-999,0.00,,,0.00,,2013-01-23 15:03:00,
2013-01-23 09:13:00,-7.0,-99.9,-100.00,WSW,248,0.0,2.0,-999,0.00,,,0.00,,2013-01-23 15:13:00,
2013-01-23 09:23:00,-5.0,-99.9,-100.00,WNW,293,1.0,5.0,-999,0.00,,,0.00,,2013-01-23 15:23:00,
2013-01-23 09:33:00,-4.0,-99.9,-100.00,NW,315,0.0,3.0,-999,0.00,,,0.00,,2013-01-23 15:33:00,
2013-01-23 09:44:00,-4.0,-99.9,-100.00,NW,315,0.0,3.0,-999,0.00,,,0.00,,2013-01-23 15:44:00,
2013-01-23 09:53:00,-3.0,-99.9,-100.00,NW,315,2.0,6.0,-999,0.00,,,0.00,,2013-01-23 15:53:00,
2013-01-23 10:03:00,-2.0,-99.9,-100.00,WSW,248,0.0,5.0,-999,0.00,,,0.00,,2013-01-23 16:03:00,
2013-01-23 10:12:00,-2.0,-99.9,-100.00,WSW,248,0.0,5.0,-999,0.00,,,0.00,,2013-01-23 16:12:00,
2013-01-23 10:23:00,-1.0,-99.9,-100.00,West,270,1.0,7.0,-999,0.00,,,0.00,,2013-01-23 16:23:00,
2013-01-23 10:53:00,2.0,-99.9,-100.00,NW,315,1.0,5.0,-999,0.00,,,0.00,,2013-01-23 16:53:00,
2013-01-23 11:04:00,4.0,-99.9,-100.00,WNW,293,1.0,5.0,-999,0.00,,,0.00,,2013-01-23 17:04:00,
2013-01-23 11:13:00,4.0,-99.9,-100.00,WNW,293,1.0,5.0,-999,0.00,,,0.00,,2013-01-23 17:13:00,
2013-01-23 11:23:00,5.0,-99.9,-100.00,NW,315,0.0,8.0,-999,0.00,,,0.00,,2013-01-23 17:23:00,
2013-01-23 11:34:00,5.0,-99.9,-100.00,WNW,293,2.0,6.0,-999,0.00,,,0.00,,2013-01-23 17:34:00,
2013-01-23 11:43:00,5.0,-99.9,-100.00,WNW,293,2.0,6.0,-999,0.00,,,0.00,,2013-01-23 17:43:00,
2013-01-23 11:53:00,5.0,-99.9,-100.00,NW,315,1.0,12.0,-999,0.00,,,0.00,,2013-01-23 17:53:00,
2013-01-23 12:04:00,7.0,-99.9,-100.00,WNW,293,2.0,9.0,-999,0.00,,,0.00,,2013-01-23 18:04:00,
2013-01-23 12:13:00,7.0,-99.9,-100.00,WNW,293,2.0,9.0,-999,0.00,,,0.00,,2013-01-23 18:13:00,
2013-01-23 12:24:00,8.0,-99.9,-100.00,West,270,0.0,6.0,-999,0.00,,,0.00,,2013-01-23 18:24:00,
2013-01-23 12:33:00,8.0,-99.9,-100.00,West,270,0.0,6.0,-999,0.00,,,0.00,,2013-01-23 18:33:00,
2013-01-23 12:44:00,8.0,-99.9,-100.00,NW,315,3.0,12.0,-999,0.00,,,0.00,,2013-01-23 18:44:00,
2013-01-23 12:53:00,8.0,-99.9,-100.00,West,270,2.0,10.0,-999,0.00,,,0.00,,2013-01-23 18:53:00,
2013-01-23 13:03:00,9.0,-99.9,-100.00,WSW,248,0.0,9.0,-999,0.00,,,0.00,,2013-01-23 19:03:00,
2013-01-23 13:13:00,9.0,-99.9,-100.00,WSW,248,0.0,9.0,-999,0.00,,,0.00,,2013-01-23 19:13:00,
2013-01-23 13:23:00,9.0,-99.9,-100.00,WNW,293,3.0,12.0,-999,0.00,,,0.00,,2013-01-23 19:23:00,
2013-01-23 13:33:00,9.0,-99.9,-100.00,NW,315,2.0,12.0,-999,0.00,,,0.00,,2013-01-23 19:33:00,
2013-01-23 13:43:00,9.0,-99.9,-100.00,NW,315,2.0,12.0,-999,0.00,,,0.00,,2013-01-23 19:43:00,
2013-01-23 13:53:00,9.0,-99.9,-100.00,NW,315,3.0,12.0,-999,0.00,,,0.00,,2013-01-23 19:53:00,
2013-01-23 14:03:00,9.0,-99.9,-100.00,NW,315,2.0,12.0,-999,0.00,,,0.00,,2013-01-23 20:03:00,
2013-01-23 14:13:00,9.0,-99.9,-100.00,NW,315,2.0,12.0,-999,0.00,,,0.00,,2013-01-23 20:13:00,
2013-01-23 14:23:00,9.0,-99.9,-100.00,NW,315,1.0,13.0,-999,0.00,,,0.00,,2013-01-23 20:23:00,
2013-01-23 14:33:00,10.0,-99.9,-100.00,NW,315,1.0,6.0,-999,0.00,,,0.00,,2013-01-23 20:33:00,
2013-01-23 14:43:00,10.0,-99.9,-100.00,NW,315,1.0,6.0,-999,0.00,,,0.00,,2013-01-23 20:43:00,
2013-01-23 14:54:00,10.0,-99.9,-100.00,NW,315,1.0,7.0,-999,0.00,,,0.00,,2013-01-23 20:54:00,
2013-01-23 15:03:00,9.0,-99.9,-100.00,NNW,338,2.0,8.0,-999,0.00,,,0.00,,2013-01-23 21:03:00,
2013-01-23 15:12:00,9.0,-99.9,-100.00,NNW,338,2.0,8.0,-999,0.00,,,0.00,,2013-01-23 21:12:00,
2013-01-23 15:23:00,8.0,-99.9,-100.00,NW,315,5.0,10.0,-999,0.00,,,0.00,,2013-01-23 21:23:00,
2013-01-23 15:34:00,8.0,-99.9,-100.00,North,0,1.0,8.0,-999,0.00,,,0.00,,2013-01-23 21:34:00,
2013-01-23 15:43:00,8.0,-99.9,-100.00,North,0,1.0,8.0,-999,0.00,,,0.00,,2013-01-23 21:43:00,
2013-01-23 15:53:00,7.0,-99.9,-100.00,NW,315,6.0,16.0,-999,0.00,,,0.00,,2013-01-23 21:53:00,
2013-01-23 16:03:00,7.0,-99.9,-100.00,NNW,338,1.0,13.0,-999,0.00,,,0.00,,2013-01-23 22:03:00,
2013-01-23 16:13:00,7.0,-99.9,-100.00,NNW,338,1.0,13.0,-999,0.00,,,0.00,,2013-01-23 22:13:00,
2013-01-23 16:23:00,6.0,-99.9,-100.00,NNW,338,5.0,12.0,-999,0.00,,,0.00,,2013-01-23 22:23:00,
2013-01-23 16:33:00,6.0,-99.9,-100.00,NW,315,7.0,10.0,-999,0.00,,,0.00,,2013-01-23 22:33:00,
2013-01-23 16:43:00,6.0,-99.9,-100.00,NW,315,7.0,10.0,-999,0.00,,,0.00,,2013-01-23 22:43:00,
2013-01-23 16:53:00,5.0,-99.9,-100.00,NNW,338,2.0,8.0,-999,0.00,,,0.00,,2013-01-23 22:53:00,
2013-01-23 17:03:00,5.0,-99.9,-100.00,NW,315,3.0,10.0,-999,0.00,,,0.00,,2013-01-23 23:03:00,
2013-01-23 17:13:00,5.0,-99.9,-100.00,NW,315,3.0,10.0,-999,0.00,,,0.00,,2013-01-23 23:13:00,
2013-01-23 17:23:00,5.0,-99.9,-100.00,NW,315,2.0,12.0,-999,0.00,,,0.00,,2013-01-23 23:23:00,
2013-01-23 17:33:00,4.0,-99.9,-100.00,NW,315,2.0,10.0,-999,0.00,,,0.00,,2013-01-23 23:33:00,
2013-01-23 17:43:00,4.0,-99.9,-100.00,NW,315,2.0,10.0,-999,0.00,,,0.00,,2013-01-23 23:43:00,
2013-01-23 17:53:00,5.0,-99.9,-100.00,North,0,0.0,6.0,-999,0.00,,,0.00,,2013-01-23 23:53:00,
2013-01-23 18:03:00,5.0,-99.9,-100.00,North,0,2.0,9.0,-999,0.00,,,0.00,,2013-01-24 00:03:00,
2013-01-23 18:12:00,5.0,-99.9,-100.00,North,0,2.0,9.0,-999,0.00,,,0.00,,2013-01-24 00:12:00,
2013-01-23 18:23:00,5.0,-99.9,-100.00,North,0,5.0,14.0,-999,0.00,,,0.00,,2013-01-24 00:23:00,
2013-01-23 18:33:00,5.0,-99.9,-100.00,North,0,3.0,12.0,-999,0.00,,,0.00,,2013-01-24 00:33:00,
2013-01-23 18:43:00,5.0,-99.9,-100.00,North,0,3.0,12.0,-999,0.00,,,0.00,,2013-01-24 00:43:00,
2013-01-23 18:53:00,4.0,-99.9,-100.00,NNE,23,2.0,5.0,-999,0.00,,,0.00,,2013-01-24 00:53:00,
2013-01-23 19:03:00,4.0,-99.9,-100.00,North,0,3.0,17.0,-999,0.00,,,0.00,,2013-01-24 01:03:00,
2013-01-23 19:13:00,4.0,-99.9,-100.00,North,0,3.0,17.0,-999,0.00,,,0.00,,2013-01-24 01:13:00,
2013-01-23 19:23:00,4.0,-99.9,-100.00,North,0,6.0,14.0,-999,0.00,,,0.00,,2013-01-24 01:23:00,
2013-01-23 19:33:00,3.0,-99.9,-100.00,North,0,5.0,12.0,-999,0.00,,,0.00,,2013-01-24 01:33:00,
2013-01-23 19:43:00,3.0,-99.9,-100.00,North,0,5.0,12.0,-999,0.00,,,0.00,,2013-01-24 01:43:00,
2013-01-23 19:53:00,2.0,-99.9,-100.00,North,0,5.0,14.0,-999,0.00,,,0.00,,2013-01-24 01:53:00,
2013-01-23 20:03:00,2.0,-99.9,-100.00,North,0,2.0,14.0,-999,0.00,,,0.00,,2013-01-24 02:03:00,
2013-01-23 20:12:00,2.0,-99.9,-100.00,North,0,2.0,14.0,-999,0.00,,,0.00,,2013-01-24 02:12:00,
2013-01-23 20:23:00,2.0,-99.9,-100.00,North,0,3.0,12.0,-999,0.00,,,0.00,,2013-01-24 02:23:00,
2013-01-23 20:33:00,2.0,-99.9,-100.00,North,0,3.0,9.0,-999,0.00,,,0.00,,2013-01-24 02:33:00,
2013-01-23 20:43:00,2.0,-99.9,-100.00,North,0,3.0,9.0,-999,0.00,,,0.00,,2013-01-24 02:43:00,
2013-01-23 20:53:00,2.0,-99.9,-100.00,North,0,3.0,9.0,-999,0.00,,,0.00,,2013-01-24 02:53:00,
2013-01-23 21:03:00,2.0,-99.9,-100.00,North,0,5.0,12.0,-999,0.00,,,0.00,,2013-01-24 03:03:00,
2013-01-23 21:12:00,2.0,-99.9,-100.00,North,0,5.0,12.0,-999,0.00,,,0.00,,2013-01-24 03:12:00,
2013-01-23 21:22:00,1.0,-99.9,-100.00,North,0,2.0,10.0,-999,0.00,,,0.00,,2013-01-24 03:22:00,
2013-01-23 21:33:00,1.0,-99.9,-100.00,NNE,23,2.0,10.0,-999,0.00,,,0.00,,2013-01-24 03:33:00,
2013-01-23 21:43:00,1.0,-99.9,-100.00,NNE,23,2.0,10.0,-999,0.00,,,0.00,,2013-01-24 03:43:00,
2013-01-23 21:53:00,1.0,-99.9,-100.00,North,0,0.0,12.0,-999,0.00,,,0.00,,2013-01-24 03:53:00,
2013-01-23 22:03:00,1.0,-99.9,-100.00,North,0,2.0,9.0,-999,0.00,,,0.00,,2013-01-24 04:03:00,
2013-01-23 22:13:00,1.0,-99.9,-100.00,North,0,2.0,9.0,-999,0.00,,,0.00,,2013-01-24 04:13:00,
2013-01-23 22:53:00,-1.0,-99.9,-100.00,NNE,23,0.0,5.0,-999,0.00,,,0.00,,2013-01-24 04:53:00,
2013-01-23 23:03:00,-1.0,-99.9,-100.00,North,0,0.0,2.0,-999,0.00,,,0.00,,2013-01-24 05:03:00,
2013-01-23 23:12:00,-1.0,-99.9,-100.00,North,0,0.0,2.0,-999,0.00,,,0.00,,2013-01-24 05:12:00,
2013-01-23 23:23:00,-1.0,-99.9,-100.00,NNE,23,0.0,3.0,-999,0.00,,,0.00,,2013-01-24 05:23:00,
2013-01-23 23:33:00,-1.0,-99.9,-100.00,North,0,0.0,3.0,-999,0.00,,,0.00,,2013-01-24 05:33:00,
2013-01-23 23:43:00,-1.0,-99.9,-100.00,North,0,0.0,3.0,-999,0.00,,,0.00,,2013-01-24 05:43:00,
2013-01-23 23:53:00,-2.0,-99.9,-100.00,NNE,23,1.0,3.0,-999,0.00,,,0.00,,2013-01-24 05:53:00,